Location: Newark
(49.1000°N, 0.4667°W)
Time: 09:53:59
(UTC+00:00)

BEESAT 3 - Pass Details

Date: 03 July 2020
Orbit: 482 x 522 km, 64.9° (Epoch: 10 August)

Event Time Altitude Azimuth Distance (km) Brightness Sun altitude
Exits shadow 21:14:58 - 179° (S) 2,093 ? -8.6°
Reaches altitude 10° 21:15:58 10° 172° (S) 1,748 ? -8.7°
Maximum altitude 21:19:10 24° 117° (ESE) 1,098 ? -9.0°
Drops below altitude 10° 21:22:25 10° 62° (ENE) 1,766 ? -9.3°
Sets 21:24:52 0° 48° (NE) 2,660 ? -9.6°
